EW6674 Weather Reports


time (UTC)temp
C
wind
direction
speed
KPH
gust
KPH
rain 1hr
cm
rain 24hr
cm
rain mn
cm
humidity
%
barometer
mb
20260505041529 13 55 3.2 8.0 0.00 0.00 0.00 80 1011.9
20260505040025 13 59 3.2 8.0 0.00 0.00 0.00 80 1011.7
20260505034521 13 44 3.2 6.4 0.00 0.00 0.00 81 1011.7
20260505033021 12 44 0.0 6.4 0.00 0.00 0.00 81 1011.8
20260505031520 12 42 1.6 6.4 0.00 0.00 0.00 81 1011.8
20260505030019 12 42 1.6 4.8 0.00 0.00 0.00 81 1012.0
20260505024518 12 42 1.6 4.8 0.00 0.00 0.00 81 1012.0
20260505023017 12 42 3.2 6.4 0.00 0.00 0.00 81 1012.1
20260505021516 12 44 4.8 9.7 0.00 0.00 0.00 82 1012.1
20260505020013 12 15 3.2 6.4 0.00 0.00 0.00 83 1012.5
20260505014522 12 15 1.6 4.8 0.00 0.00 0.00 83 1012.6
20260505013010 13 15 1.6 6.4 0.00 0.00 0.00 84 1012.6
20260505011507 13 80 3.2 6.4 0.00 0.00 0.00 83 1012.7
20260505010005 13 82 3.2 6.4 0.00 0.00 0.00 83 1012.9
20260505004506 13 83 1.6 6.4 0.00 0.00 0.00 83 1013.1
20260505003113 14 155 1.6 4.8 0.00 0.00 0.00 83 1013.2
20260505001602 14 155 3.2 8.0 0.00 0.00 0.00 83 1013.3
20260505000059 14 155 1.6 8.0 0.00 0.00 0.00 83 1013.5
20260504234555 14 155 1.6 4.8 0.00 0.00 0.00 83 1013.6
20260504233057 14 156 1.6 4.8 0.00 0.00 0.00 82 1013.8
20260504231551 14 156 1.6 4.8 0.00 0.00 0.00 80 1013.9
20260504230049 15 156 1.6 4.8 0.00 0.00 0.00 78 1014.0
20260504224547 15 156 3.2 8.0 0.00 0.00 0.00 79 1014.0
20260504223059 15 157 1.6 8.0 0.00 0.00 0.00 78 1014.1
20260504221546 15 173 0.0 3.2 0.00 0.00 0.00 77 1014.1
20260504220043 15 173 0.0 0.0 0.00 0.00 0.00 76 1014.2
20260504214541 15 173 0.0 0.0 0.00 0.00 0.00 75 1014.2
20260504213044 15 173 0.0 1.6 0.00 0.00 0.00 75 1014.3
20260504211611 16 173 0.0 1.6 0.00 0.00 0.00 74 1014.4
20260504210045 16 173 0.0 0.0 0.00 0.00 0.00 73 1014.5
20260504204539 17 173 0.0 0.0 0.00 0.00 0.00 71 1014.5
20260504203039 17 173 0.0 6.4 0.00 0.00 0.00 70 1014.4
20260504201539 17 173 0.0 4.8 0.00 0.00 0.00 69 1014.3
20260504200039 17 173 1.6 4.8 0.00 0.00 0.00 69 1014.3
20260504194544 17 173 1.6 4.8 0.00 0.00 0.00 70 1014.1
20260504193037 17 182 0.0 4.8 0.00 0.00 0.00 69 1014.1
20260504191537 18 182 0.0 3.2 0.00 0.00 0.00 66 1014.1
20260504190043 18 182 0.0 1.6 0.00 0.00 0.00 63 1013.9
20260504184545 18 182 0.0 1.6 0.00 0.00 0.00 61 1013.7
20260504183034 19 182 0.0 1.6 0.00 0.00 0.00 62 1013.7
20260504181536 20 182 0.0 3.2 0.00 0.00 0.00 63 1013.6
20260504180034 20 182 0.0 4.8 0.00 0.00 0.00 63 1013.4
20260504174536 21 188 1.6 6.4 0.00 0.00 0.00 62 1013.3
20260504173033 21 190 3.2 8.0 0.00 0.00 0.00 57 1013.3
20260504171531 21 190 4.8 14.5 0.00 0.00 0.00 58 1013.3
20260504081532 22 175 3.2 8.0 0.00 0.00 0.00 40 1015.6